This demonstration page uses our WeatherBlox Daily Observations layout. Learn more.

Left ArrowRight Arrow

Hourly Observations for May 22, 2018

Temp ( °F °C ) Dew Point ( °F °C ) Humidity (%) Winds ( mph kmh ) Pressure ( in mb ) Visibility ( mi km ) Precip ( " mm )
12:53 am 00:53 Clear 65 18.3 57 13.9 76 76 SE 8 13 29.94 1014 10 16 0.00 0.00
1:53 am 01:53 Clear 65 18.3 56 13.3 73 73 SSE 9 15 29.93 1014 10 16 0.00 0.00
2:53 am 02:53 Partly Cloudy 64 17.8 57 13.9 78 78 SSE 12 19 29.92 1013 10 16 0.00 0.00
3:07 am 03:07 Partly Cloudy with Nearby Thunderstorms 64 17.8 57 13.9 78 78 SSE 10 17 29.88 1012 10 16 0.00 0.00
3:22 am 03:22 Mostly Clear 63 17 57 14 83 83 SE 8 13 29.91 1013 10 16 0.00 0.00
3:53 am 03:53 Clear 63 17.2 57 13.9 81 81 SSE 9 15 29.92 1013 10 16 0.00 0.00
4:53 am 04:53 Clear 63 17.2 58 14.4 84 84 SSE 13 20 29.91 1013 10 16 0.00 0.00
5:53 am 05:53 Clear 62 16.7 58 14.4 86 86 SSE 13 20 29.91 1013 10 16 0.00 0.00
6:53 am 06:53 Sunny 63 17.2 59 15 87 87 S 12 19 29.91 1013 10 16 0.00 0.00
7:53 am 07:53 Sunny 66 18.9 60 15.6 81 81 S 9 15 29.92 1013 10 16 0.00 0.00
8:53 am 08:53 Sunny 69 20.6 61 16.1 76 76 SSW 14 22 29.93 1014 10 16 0.00 0.00
9:53 am 09:53 Sunny 73 22.8 63 17.2 71 71 SSW 12 19 29.93 1014 10 16 0.00 0.00
10:53 am 10:53 Sunny 76 24.4 63 17.2 64 64 SSW 14 22 29.93 1014 10 16 0.00 0.00
11:53 am 11:53 Sunny 78 25.6 64 17.8 62 62 SW 10 17 29.94 1014 10 16 0.00 0.00
12:53 pm 12:53 Sunny 80 26.7 64 17.8 58 58 SSW 7 11 29.93 1014 10 16 0.00 0.00
1:53 pm 13:53 Sunny 84 28.9 65 18.3 53 53 S 9 15 29.91 1013 10 16 0.00 0.00
2:53 pm 14:53 Sunny 86 30 62 16.7 45 45 S 14 22 29.89 1012 10 16 0.00 0.00
3:53 pm 15:53 Mostly Sunny 86 30 63 17.2 46 46 S 9 15 29.88 1012 10 16 0.00 0.00
4:53 pm 16:53 Sunny 87 30.6 62 16.7 43 43 SSE 12 19 29.87 1012 10 16 0.00 0.00
5:53 pm 17:53 Sunny 85 29.4 61 16.1 45 45 S 13 20 29.87 1012 10 16 0.00 0.00
6:53 pm 18:53 Sunny 85 29.4 61 16.1 45 45 SSE 16 26 29.86 1011 10 16 0.00 0.00
7:53 pm 19:53 Sunny 82 27.8 61 16.1 49 49 S 12 19 29.87 1011 10 16 0.00 0.00
8:53 pm 20:53 Clear 79 26.1 61 16.1 54 54 SSE 8 13 29.88 1012 10 16 0.00 0.00
9:53 pm 21:53 Clear 77 25 61 16.1 58 58 SSE 10 17 29.90 1012 10 16 0.00 0.00
10:53 pm 22:53 Clear 76 24.4 62 16.7 62 62 SSE 12 19 29.92 1013 10 16 0.00 0.00
11:53 pm 23:53 Clear 74 23.3 63 17.2 69 69 S 8 13 29.93 1013 10 16 0.00 0.00

Powered by AerisWeather